Overview Statistics Trail Chart Weather Telemetry Raw packets
 

This is the latest recevied weather packets stored in our database for station/object VO2AGO. If no packets are shown the sender has not sent any weather packets the latest 10 day(s).

<< 38 39 40 41 42 43 44 >>
Time Temp. Humidity Pressure Rain* Wind** Luminosity Snow
1777732101 5.56° C - - - 0 m/s 1210 W/m² -
1777731651 4.44° C - - - 0 m/s 1134 W/m² -
1777731201 3.89° C - - - 0 m/s 1057 W/m² -
1777730751 3.89° C - - - 0 m/s 833 W/m² -
1777730301 3.89° C - - - 0 m/s 759 W/m² -
1777729850 3.89° C - - - 0 m/s 1024 W/m² -
1777729400 3.89° C - - - 0 m/s 936 W/m² -
1777728951 3.33° C - - - 0 m/s 918 W/m² -
1777728501 3.33° C - - - 0 m/s 966 W/m² -
1777728052 3.33° C - - - 0 m/s 796 W/m² -
1777727600 3.89° C - - - 0 m/s 970 W/m² -
1777727151 3.33° C - - - 0 m/s 959 W/m² -
1777726700 3.33° C - - - 0 m/s 830 W/m² -
1777726251 3.89° C - - - 0 m/s 992 W/m² -
1777725801 3.33° C - - - 0 m/s 1096 W/m² -
1777725351 3.33° C - - - 0 m/s 1206 W/m² -
1777724901 2.78° C - - - 0 m/s 868 W/m² -
1777724451 2.22° C - - - 0 m/s 782 W/m² -
1777724001 2.22° C - - - 0 m/s 707 W/m² -
1777723551 1.67° C - - - 0 m/s 498 W/m² -
1777723101 1.67° C - - - 0 m/s 309 W/m² -
1777722651 1.67° C - - - 0 m/s 275 W/m² -
1777722200 1.67° C - - - 0 m/s 340 W/m² -
1777721751 1.67° C - - - 0 m/s 352 W/m² -
1777721301 1.67° C - - - 0 m/s 376 W/m² -

* Rain since midnight (hover to see other rain measurements)
** Current wind speed in m/s (hover to see current wind gust speed)